McHenry, MD

8:17 AM EDT on September 27, 2016 (GMT -0400)
Oakland

Weather History for K2G4 - February, 2013

Change the Weather History Date:

Friday, February 15, 2013

  Actual Average (KMGW) Record (KMGW)
Temperature  
Mean Temperature 30 °F 34 °F  
Max Temperature 35 °F 43 °F 72 °F (1954)
Min Temperature 26 °F 25 °F -2 °F (2015)
Degree Days  
Heating Degree Days 34 31  
Month to date heating degree days 480  
Since 1 July heating degree days 3507  
Moisture  
Dew Point 29 °F    
Average Humidity 93    
Maximum Humidity 100    
Minimum Humidity 65    
Precipitation  
Precipitation 0.00 in 0.09 in 1.75 in (1989)
Month to date precipitation 1.35  
Year to date precipitation 4.16  
Sea Level Pressure  
Sea Level Pressure 29.91 in    
Wind  
Wind Speed 8 mph (West)    
Max Wind Speed 13 mph    
Max Gust Speed 22 mph    
Visibility 7 miles    
Events      
T = Trace of Precipitation, MM = Missing Value Source: NWS Daily Summary

Daily Weather History Graph

Daily Weather History Graph

Search for Another Location

Airport or City:

Trip Planner

Search our weather history database for the weather conditions in past years. The results will help you decide how hot, cold, wet, or windy it might be!

Date:

Astronomy

Feb. 15, 2013 Rise Set
Actual Time 7:09 AM EST 5:54 PM EST
Civil Twilight 6:41 AM EST 6:21 PM EST
Nautical Twilight 6:10 AM EST 6:53 PM EST
Astronomical Twilight 5:39 AM EST 7:24 PM EST
Moon 9:45 AM EST (2/15) 11:51 PM EST (2/15)
Length of Visible Light 11h 40m
Length of Day
10h 44m
Waxing Crescent, 30% of the Moon is Illuminated
Feb 15
Waxing Crescent
Feb 17
First Quarter
Feb 25
Full
Mar 4
Last Quarter
Mar 11
New

Hourly Weather History & Observations

Time (EST) Temp. Windchill Dew Point Humidity Pressure Visibility Wind Dir Wind Speed Gust Speed Precip Events Conditions
12:10 AM 35.6 °F 28.0 °F 28.4 °F 75% 29.87 in 10.0 mi WSW 10.4 mph 16.1 mph N/A   Mostly Cloudy
12:30 AM 33.8 °F 25.3 °F 28.4 °F 81% 29.87 in 10.0 mi WSW 11.5 mph 18.4 mph N/A   Scattered Clouds
12:50 AM 33.8 °F 25.3 °F 28.4 °F 81% 29.87 in 10.0 mi WSW 11.5 mph 21.9 mph N/A   Scattered Clouds
1:10 AM 33.8 °F 26.4 °F 30.2 °F 87% 29.87 in 10.0 mi WSW 9.2 mph 18.4 mph N/A   Mostly Cloudy
1:30 AM 33.8 °F 27.0 °F 30.2 °F 87% 29.87 in 10.0 mi WSW 8.1 mph - N/A   Mostly Cloudy
1:50 AM 33.8 °F 26.4 °F 30.2 °F 87% 29.87 in 10.0 mi WSW 9.2 mph 18.4 mph N/A   Scattered Clouds
2:10 AM 33.8 °F 27.0 °F 30.2 °F 87% 29.87 in 10.0 mi SW 8.1 mph - N/A   Mostly Cloudy
2:30 AM 33.8 °F 27.0 °F 30.2 °F 87% 29.88 in 10.0 mi WSW 8.1 mph - N/A   Mostly Cloudy
2:50 AM 33.8 °F 25.8 °F 30.2 °F 87% 29.88 in 10.0 mi WSW 10.4 mph 16.1 mph N/A   Overcast
3:10 AM 33.8 °F 27.0 °F 30.2 °F 87% 29.89 in 10.0 mi West 8.1 mph - N/A   Overcast
3:30 AM 33.8 °F 27.7 °F 30.2 °F 87% 29.89 in 10.0 mi West 6.9 mph - N/A   Overcast
3:50 AM 33.8 °F 27.7 °F 30.2 °F 87% 29.90 in 10.0 mi West 6.9 mph - N/A   Overcast
4:10 AM 32.0 °F 24.8 °F 32.0 °F 100% 29.90 in 10.0 mi West 8.1 mph - N/A   Overcast
4:30 AM 32.0 °F 26.4 °F 32.0 °F 100% 29.90 in 10.0 mi West 5.8 mph - N/A   Overcast
4:50 AM 32.0 °F 25.6 °F 32.0 °F 100% 29.90 in 10.0 mi West 6.9 mph - N/A   Overcast
5:10 AM 32.0 °F 25.6 °F 32.0 °F 100% 29.91 in 7.0 mi West 6.9 mph - N/A   Overcast
5:30 AM 32.0 °F 26.4 °F 32.0 °F 100% 29.91 in 5.0 mi West 5.8 mph - N/A   Overcast
5:50 AM 32.0 °F 27.5 °F 32.0 °F 100% 29.91 in 5.0 mi WSW 4.6 mph - N/A   Overcast
6:10 AM 32.0 °F 26.4 °F 32.0 °F 100% 29.91 in 4.0 mi West 5.8 mph - N/A   Overcast
6:30 AM 32.0 °F 26.4 °F 32.0 °F 100% 29.92 in 4.0 mi WSW 5.8 mph - N/A   Overcast
6:50 AM 32.0 °F 27.5 °F 32.0 °F 100% 29.92 in 4.0 mi WSW 4.6 mph - N/A   Overcast
7:10 AM 32.0 °F 25.6 °F 32.0 °F 100% 29.92 in 7.0 mi WSW 6.9 mph - N/A   Overcast
7:30 AM 32.0 °F 26.4 °F 32.0 °F 100% 29.92 in 7.0 mi WSW 5.8 mph - N/A   Overcast
7:50 AM 32.0 °F 26.4 °F 32.0 °F 100% 29.93 in 7.0 mi West 5.8 mph - N/A   Overcast
8:10 AM 32.0 °F 26.4 °F 32.0 °F 100% 29.94 in 10.0 mi West 5.8 mph - N/A   Overcast
8:30 AM 32.0 °F 25.6 °F 32.0 °F 100% 29.95 in 7.0 mi West 6.9 mph - N/A   Overcast
8:50 AM 32.0 °F 26.4 °F 32.0 °F 100% 29.95 in 10.0 mi WNW 5.8 mph - N/A   Overcast
9:10 AM 32.0 °F 26.4 °F 32.0 °F 100% 29.95 in 10.0 mi West 5.8 mph - N/A   Mostly Cloudy
9:30 AM 33.8 °F 26.4 °F 28.4 °F 81% 29.95 in 10.0 mi West 9.2 mph 17.3 mph N/A   Mostly Cloudy
9:50 AM 33.8 °F 25.3 °F 26.6 °F 75% 29.95 in 10.0 mi WSW 11.5 mph 17.3 mph N/A   Scattered Clouds
10:10 AM 33.8 °F 24.8 °F 26.6 °F 75% 29.95 in 10.0 mi WSW 12.7 mph 17.3 mph N/A   Clear
10:30 AM 33.8 °F 25.8 °F 26.6 °F 75% 29.95 in 10.0 mi WSW 10.4 mph 16.1 mph N/A   Scattered Clouds
10:50 AM 33.8 °F 25.8 °F 26.6 °F 75% 29.95 in 10.0 mi WSW 10.4 mph 16.1 mph N/A   Mostly Cloudy
11:10 AM 35.6 °F 29.2 °F 26.6 °F 70% 29.95 in 10.0 mi West 8.1 mph - N/A   Overcast
11:30 AM 33.8 °F 27.0 °F 26.6 °F 75% 29.95 in 10.0 mi West 8.1 mph - N/A   Overcast
11:50 AM 35.6 °F 27.5 °F 26.6 °F 70% 29.94 in 10.0 mi WNW 11.5 mph - N/A   Overcast
12:10 PM 33.8 °F 27.0 °F 26.6 °F 75% 29.93 in 10.0 mi West 8.1 mph - N/A   Overcast
12:50 PM 33.8 °F 26.4 °F 23.0 °F 65% 29.92 in 10.0 mi WSW 9.2 mph 16.1 mph N/A   Overcast
1:10 PM 32.0 °F 27.5 °F 26.6 °F 80% 29.92 in 10.0 mi WSW 4.6 mph - N/A   Overcast
1:30 PM 32.0 °F 26.4 °F 28.4 °F 87% 29.92 in 2.0 mi West 5.8 mph - N/A   Overcast
1:50 PM 32.0 °F 26.4 °F 30.2 °F 93% 29.91 in 1.0 mi West 5.8 mph - N/A   Overcast
2:10 PM 32.0 °F 26.4 °F 32.0 °F 100% 29.92 in 1.5 mi WSW 5.8 mph - N/A   Overcast
2:30 PM 30.2 °F 23.4 °F 30.2 °F 100% 29.91 in 0.8 mi WSW 6.9 mph - N/A   Overcast
2:50 PM 30.2 °F 24.3 °F 30.2 °F 100% 29.91 in 1.2 mi WSW 5.8 mph - N/A   Overcast
3:10 PM 32.0 °F 27.5 °F 32.0 °F 100% 29.91 in 2.5 mi West 4.6 mph - N/A   Overcast
3:30 PM 30.2 °F 23.4 °F 30.2 °F 100% 29.90 in 2.0 mi WSW 6.9 mph - N/A   Overcast
3:50 PM 30.2 °F 22.6 °F 30.2 °F 100% 29.90 in 1.5 mi WSW 8.1 mph - N/A   Overcast
4:10 PM 30.2 °F 23.4 °F 30.2 °F 100% 29.90 in 7.0 mi WSW 6.9 mph - N/A   Overcast
4:30 PM 30.2 °F 24.3 °F 30.2 °F 100% 29.91 in 3.0 mi WSW 5.8 mph - N/A   Overcast
4:50 PM 30.2 °F 23.4 °F 30.2 °F 100% 29.91 in 1.2 mi West 6.9 mph - N/A   Overcast
5:10 PM 30.2 °F 21.9 °F 30.2 °F 100% 29.91 in 1.2 mi WSW 9.2 mph - N/A   Overcast
5:30 PM 28.4 °F 22.2 °F 28.4 °F 100% 29.91 in 1.8 mi West 5.8 mph - N/A   Overcast
5:50 PM 28.4 °F 22.2 °F 28.4 °F 100% 29.91 in 1.8 mi West 5.8 mph - N/A   Overcast
6:10 PM 28.4 °F 22.2 °F 28.4 °F 100% 29.92 in 4.0 mi West 5.8 mph - N/A   Overcast
6:30 PM 28.4 °F 22.2 °F 28.4 °F 100% 29.92 in 4.0 mi West 5.8 mph - N/A   Overcast
6:50 PM 28.4 °F 23.3 °F 28.4 °F 100% 29.92 in 5.0 mi WSW 4.6 mph - N/A   Overcast
7:10 PM 28.4 °F 21.2 °F 28.4 °F 100% 29.92 in 10.0 mi West 6.9 mph - N/A   Overcast
7:30 PM 28.4 °F 23.3 °F 28.4 °F 100% 29.92 in 10.0 mi West 4.6 mph 8.1 mph N/A   Overcast
7:50 PM 28.4 °F 21.2 °F 28.4 °F 100% 29.92 in 10.0 mi West 6.9 mph - N/A   Overcast
8:10 PM 28.4 °F 21.2 °F 28.4 °F 100% 29.92 in 10.0 mi West 6.9 mph - N/A   Overcast
8:30 PM 28.4 °F 19.1 °F 28.4 °F 100% 29.92 in 10.0 mi West 10.4 mph - N/A   Overcast
9:50 PM 28.4 °F 20.4 °F 28.4 °F 100% 29.91 in 10.0 mi WSW 8.1 mph 16.1 mph N/A   Overcast
10:10 PM 28.4 °F 19.7 °F 28.4 °F 100% 29.91 in 4.0 mi West 9.2 mph - N/A   Overcast
10:30 PM 28.4 °F 19.1 °F 28.4 °F 100% 29.91 in 4.0 mi WSW 10.4 mph 19.6 mph N/A   Overcast
10:50 PM 28.4 °F 19.1 °F 28.4 °F 100% 29.91 in 7.0 mi West 10.4 mph 16.1 mph N/A   Overcast
11:10 PM 28.4 °F 18.0 °F 28.4 °F 100% 29.91 in 4.0 mi WNW 12.7 mph 19.6 mph N/A   Overcast
11:30 PM 26.6 °F 19.1 °F 26.6 °F 100% 29.91 in 7.0 mi WNW 6.9 mph 19.6 mph N/A   Overcast
11:50 PM 26.6 °F 18.2 °F 26.6 °F 100% 29.91 in 10.0 mi WNW 8.1 mph - N/A   Overcast